FW7253 Weather Reports


time (UTC)temp
F
wind
direction
speed
knots
gust
knots
rain 1hr
in
rain 24hr
in
rain mn
in
humidity
%
barometer
mb
20260831202535 55 0 0.0 0.0 0.00 0.00 0.00 91 1007.1
20260831202034 55 0 0.0 0.0 0.00 0.00 0.00 91 1007.1
20260831201557 55 0 0.0 0.0 0.00 0.00 0.00 91 1007.2
20260831201034 55 0 0.0 0.0 0.00 0.00 0.00 91 1007.2
20260831200535 55 0 0.0 0.0 0.00 0.00 0.00 91 1007.1
20260831200105 55 0 0.0 0.0 0.00 0.00 0.00 90 1007.1
20260831195534 55 0 0.0 0.0 0.00 0.00 0.00 90 1007.2
20260831195033 56 0 0.0 0.9 0.00 0.00 0.00 90 1007.2
20260831194627 56 0 0.0 0.9 0.00 0.00 0.00 90 1007.0
20260831194034 56 0 0.0 3.5 0.00 0.00 0.00 90 1007.1
20260831193535 56 0 0.0 3.5 0.00 0.00 0.00 90 1007.1
20260831193048 56 0 0.0 0.0 0.00 0.00 0.00 89 1007.0
20260831192534 56 0 0.0 0.0 0.00 0.00 0.00 89 1007.1
20260831192034 56 0 0.0 0.0 0.00 0.00 0.00 89 1007.0
20260831191556 57 0 0.0 0.0 0.00 0.00 0.00 88 1006.9
20260831191040 57 0 0.0 1.7 0.00 0.00 0.00 88 1006.8
20260831190535 57 0 0.0 1.7 0.00 0.00 0.00 88 1006.9
20260831185534 57 103 0.0 0.9 0.00 0.00 0.00 87 1006.7
20260831185034 58 0 0.0 0.9 0.00 0.00 0.00 87 1006.7
20260831184550 58 0 0.0 1.7 0.00 0.00 0.00 87 1006.7
20260831184030 58 0 0.0 1.7 0.00 0.00 0.00 87 1006.7
20260831183536 58 129 0.9 2.6 0.00 0.00 0.00 86 1006.7
20260831183106 58 0 0.0 2.6 0.00 0.00 0.00 86 1006.6
20260831182535 59 157 0.0 1.7 0.00 0.00 0.00 85 1006.5
20260831182035 59 149 0.0 1.7 0.00 0.00 0.00 85 1006.5
20260831181557 59 195 0.0 2.6 0.00 0.00 0.00 85 1006.4
20260831181034 59 186 0.0 2.6 0.00 0.00 0.00 84 1006.4
20260831180534 60 136 0.9 2.6 0.00 0.00 0.00 83 1006.3
20260831180111 60 155 0.9 3.5 0.00 0.00 0.00 83 1006.4
20260831175531 60 105 0.9 6.1 0.00 0.00 0.00 83 1006.3
20260831175034 60 172 0.9 7.0 0.00 0.00 0.00 82 1006.3
20260831174552 61 195 1.7 7.0 0.00 0.00 0.00 81 1006.3
20260831174034 61 178 2.6 7.0 0.00 0.00 0.00 80 1006.3
20260831173538 62 164 0.9 6.1 0.00 0.00 0.00 79 1006.3
20260831173046 62 150 2.6 6.1 0.00 0.00 0.00 78 1006.3
20260831172534 62 157 2.6 6.1 0.00 0.00 0.00 77 1006.1
20260831172034 63 215 1.7 6.1 0.00 0.00 0.00 77 1006.2
20260831171547 63 130 1.7 7.0 0.00 0.00 0.00 76 1006.2
20260831171032 64 153 1.7 7.0 0.00 0.00 0.00 74 1006.1
20260831170532 64 248 1.7 4.3 0.00 0.00 0.00 74 1006.1
20260831170052 64 198 1.7 7.0 0.00 0.00 0.00 73 1006.2
20260831165534 64 253 3.5 7.0 0.00 0.00 0.00 72 1006.1
20260831165032 64 203 1.7 7.0 0.00 0.00 0.00 72 1006.1
20260831164550 65 126 1.7 7.0 0.00 0.00 0.00 70 1006.0
20260831164035 65 143 2.6 7.0 0.00 0.00 0.00 69 1005.9
20260831163532 65 125 0.9 5.2 0.00 0.00 0.00 69 1006.0
20260831163049 65 95 1.7 6.1 0.00 0.00 0.00 68 1006.0
20260831162535 65 168 1.7 7.0 0.00 0.00 0.00 68 1005.9
20260831162033 66 178 4.3 7.0 0.00 0.00 0.00 68 1005.9
20260831161554 66 221 4.3 7.0 0.00 0.00 0.00 67 1005.9
20260831161031 66 194 3.5 6.1 0.00 0.00 0.00 67 1005.8
20260831160535 66 231 4.3 7.0 0.00 0.00 0.00 66 1005.8
20260831160050 66 162 4.3 7.8 0.00 0.00 0.00 65 1005.9
20260831155532 67 219 4.3 7.8 0.00 0.00 0.00 65 1005.8
20260831155035 67 220 2.6 7.0 0.00 0.00 0.00 66 1005.7
20260831154616 67 181 3.5 7.0 0.00 0.00 0.00 66 1005.8
20260831154034 67 149 2.6 8.7 0.00 0.00 0.00 65 1005.7
20260831153535 67 204 3.5 9.6 0.00 0.00 0.00 65 1005.7
20260831153058 67 147 4.3 9.6 0.00 0.00 0.00 66 1005.8
20260831152536 67 231 6.1 9.6 0.00 0.00 0.00 65 1005.8
20260831152032 68 72 2.6 9.6 0.00 0.00 0.00 65 1005.8
20260831151552 68 205 4.3 9.6 0.00 0.00 0.00 65 1005.7
20260831151033 68 223 3.5 9.6 0.00 0.00 0.00 63 1005.7
20260831150533 68 175 1.7 9.6 0.00 0.00 0.00 63 1005.5
20260831150058 69 180 3.5 8.7 0.00 0.00 0.00 61 1005.6
20260831145531 69 214 5.2 8.7 0.00 0.00 0.00 63 1005.5
20260831145031 69 167 5.2 8.7 0.00 0.00 0.00 62 1005.5
20260831144553 69 200 5.2 8.7 0.00 0.00 0.00 65 1005.5
20260831144032 68 207 4.3 9.6 0.00 0.00 0.00 65 1005.4
20260831143532 68 189 3.5 9.6 0.00 0.00 0.00 65 1005.5
20260831143049 69 206 4.3 9.6 0.00 0.00 0.00 64 1005.5
20260831142531 69 164 3.5 8.7 0.00 0.00 0.00 64 1005.4
20260831142031 69 217 5.2 8.7 0.00 0.00 0.00 64 1005.4
20260831141547 69 68 3.5 8.7 0.00 0.00 0.00 64 1005.4
20260831141033 69 169 4.3 7.8 0.00 0.00 0.00 64 1005.4
20260831140531 69 148 3.5 7.8 0.00 0.00 0.00 64 1005.4
20260831140053 69 110 2.6 7.8 0.00 0.00 0.00 66 1005.4
20260831135532 68 118 3.5 7.8 0.00 0.00 0.00 67 1005.4
20260831135032 68 121 2.6 8.7 0.00 0.00 0.00 68 1005.4
20260831134551 68 134 3.5 9.6 0.00 0.00 0.00 69 1005.4
20260831134032 68 94 4.3 11.3 0.00 0.00 0.00 67 1005.4
20260831133531 68 99 5.2 11.3 0.00 0.00 0.00 69 1005.4
20260831133049 68 147 4.3 9.6 0.00 0.00 0.00 68 1005.3
20260831132532 68 136 2.6 8.7 0.00 0.00 0.00 68 1005.3
20260831132032 68 119 3.5 8.7 0.00 0.00 0.00 66 1005.1
20260831131546 69 106 3.5 8.7 0.00 0.00 0.00 64 1005.1
20260831131035 70 156 2.6 7.0 0.00 0.00 0.00 65 1005.2
20260831130532 70 229 2.6 9.6 0.00 0.00 0.00 67 1005.0
20260831130101 69 92 4.3 9.6 0.00 0.00 0.00 67 1004.9
20260831125533 69 160 3.5 7.8 0.00 0.00 0.00 67 1005.1
20260831125032 69 103 4.3 8.7 0.00 0.00 0.00 68 1005.0
20260831124551 69 122 5.2 8.7 0.00 0.00 0.00 67 1005.1
20260831124034 69 110 2.6 8.7 0.00 0.00 0.00 67 1005.0
20260831123534 69 135 2.6 8.7 0.00 0.00 0.00 68 1005.0
20260831123047 69 64 2.6 6.1 0.00 0.00 0.00 69 1005.0
20260831122532 68 141 1.7 6.1 0.00 0.00 0.00 68 1005.1
20260831122034 68 98 3.5 6.1 0.00 0.00 0.00 69 1005.0
20260831121551 68 145 2.6 6.1 0.00 0.00 0.00 68 1005.0
20260831121034 68 110 1.7 6.1 0.00 0.00 0.00 69 1005.0
20260831120533 68 161 3.5 6.1 0.00 0.00 0.00 67 1005.0
20260831120051 68 110 1.7 4.3 0.00 0.00 0.00 67 1005.0
20260831115531 68 0 0.9 3.5 0.00 0.00 0.00 65 1004.9
20260831115031 68 196 0.9 2.6 0.00 0.00 0.00 67 1004.9
20260831114548 68 165 0.9 4.3 0.00 0.00 0.00 65 1005.0
20260831114034 69 162 1.7 6.1 0.00 0.00 0.00 65 1004.9
20260831113534 69 92 2.6 7.0 0.00 0.00 0.00 66 1004.9
20260831113054 68 127 3.5 7.0 0.00 0.00 0.00 68 1004.9
20260831112532 68 82 4.3 7.0 0.00 0.00 0.00 67 1004.8
20260831112039 69 123 0.9 5.2 0.00 0.00 0.00 63 1004.8
20260831111546 70 138 1.7 5.2 0.00 0.00 0.00 61 1004.7
20260831111031 70 107 2.6 5.2 0.00 0.00 0.00 60 1004.8
20260831110531 70 0 1.7 4.3 0.00 0.00 0.00 62 1004.7
20260831110051 69 329 1.7 4.3 0.00 0.00 0.00 62 1004.7
20260831105534 69 179 1.7 3.5 0.00 0.00 0.00 60 1004.7
20260831105032 69 219 0.9 3.5 0.00 0.00 0.00 63 1004.8
20260831104601 68 0 0.9 7.0 0.00 0.00 0.00 63 1004.9
20260831104032 68 48 1.7 7.0 0.00 0.00 0.00 60 1004.8
20260831103531 69 274 2.6 5.2 0.00 0.00 0.00 62 1004.8
20260831103048 69 209 2.6 6.1 0.00 0.00 0.00 62 1004.9
20260831102533 69 151 2.6 6.1 0.00 0.00 0.00 61 1004.8
20260831102036 69 207 1.7 6.1 0.00 0.00 0.00 60 1004.8
20260831101553 69 219 2.6 6.1 0.00 0.00 0.00 62 1004.9
20260831101032 70 143 0.9 4.3 0.00 0.00 0.00 60 1004.8
20260831100532 69 102 1.7 4.3 0.00 0.00 0.00 62 1004.9
20260831095534 69 237 1.7 4.3 0.00 0.00 0.00 61 1004.8
20260831095032 69 148 0.9 5.2 0.00 0.00 0.00 61 1004.8
20260831094547 69 142 2.6 5.2 0.00 0.00 0.00 62 1004.8
20260831094034 68 153 1.7 3.5 0.00 0.00 0.00 64 1004.8
20260831093532 68 194 0.9 2.6 0.00 0.00 0.00 64 1004.8
20260831093050 68 150 0.0 2.6 0.00 0.00 0.00 64 1004.8
20260831092534 67 309 0.9 2.6 0.00 0.00 0.00 67 1004.8
20260831092031 67 215 0.9 4.3 0.00 0.00 0.00 68 1004.8
20260831091545 66 303 1.7 4.3 0.00 0.00 0.00 70 1004.7
20260831091031 66 250 2.6 4.3 0.00 0.00 0.00 68 1004.7
20260831090534 66 161 0.9 3.5 0.00 0.00 0.00 70 1004.7
20260831090047 65 224 0.9 2.6 0.00 0.00 0.00 72 1004.6
20260831085532 64 348 1.7 2.6 0.00 0.00 0.00 74 1004.7
20260831085031 64 165 0.0 2.6 0.00 0.00 0.00 77 1004.7
20260831084607 63 104 0.9 2.6 0.00 0.00 0.00 85 1004.8
20260831084031 62 151 1.7 2.6 0.00 0.00 0.00 93 1004.8
20260831083531 61 160 1.7 2.6 0.00 0.00 0.00 95 1004.7
20260831083054 61 207 0.9 2.6 0.00 0.00 0.00 96 1004.8
20260831082531 60 195 1.7 2.6 0.00 0.00 0.00 96 1004.7
20260831082031 60 0 0.0 2.6 0.00 0.00 0.00 97 1004.7
20260831081547 59 195 0.0 2.6 0.00 0.00 0.00 97 1004.7
20260831081033 58 191 0.0 2.6 0.00 0.00 0.00 97 1004.8
20260831080532 57 0 0.0 0.0 0.00 0.00 0.00 97 1004.7
20260831080055 57 0 0.0 0.0 0.00 0.00 0.00 97 1004.7
20260831075531 57 0 0.0 0.0 0.00 0.00 0.00 97 1004.8
20260831075033 57 0 0.0 0.0 0.00 0.00 0.00 97 1004.8
20260831074546 56 0 0.0 0.0 0.00 0.00 0.00 97 1004.8
20260831074032 56 0 0.0 0.0 0.00 0.00 0.00 97 1004.8
20260831073535 56 0 0.0 0.0 0.00 0.00 0.00 97 1004.7
20260831073054 56 0 0.0 0.0 0.00 0.00 0.00 97 1004.7
20260831072530 55 0 0.0 0.0 0.00 0.00 0.00 97 1004.6
20260831072036 55 0 0.0 0.0 0.00 0.00 0.00 97 1004.7
20260831071549 54 0 0.0 0.0 0.00 0.00 0.00 96 1004.7
20260831071031 54 0 0.0 0.0 0.00 0.00 0.00 96 1004.6
20260831070531 54 0 0.0 0.0 0.00 0.00 0.00 97 1004.7
20260831070049 54 0 0.0 0.0 0.00 0.00 0.00 97 1004.7
20260831065535 54 0 0.0 0.0 0.00 0.00 0.00 97 1004.8
20260831065035 54 0 0.0 0.0 0.00 0.00 0.00 96 1004.7
20260831064553 53 0 0.0 0.0 0.00 0.00 0.00 97 1004.7
20260831064036 53 0 0.0 0.0 0.00 0.00 0.00 96 1004.6
20260831063534 53 0 0.0 0.0 0.00 0.00 0.00 97 1004.6
20260831063050 53 0 0.0 0.0 0.00 0.00 0.00 96 1004.5
20260831062536 52 0 0.0 0.0 0.00 0.00 0.00 96 1004.4
20260831062034 52 0 0.0 0.0 0.00 0.00 0.00 96 1004.4
20260831061548 52 0 0.0 0.0 0.00 0.00 0.00 96 1004.3
20260831061033 52 0 0.0 0.0 0.00 0.00 0.00 96 1004.4
20260831060532 52 0 0.0 0.0 0.00 0.00 0.00 96 1004.3
20260831060048 52 0 0.0 0.0 0.00 0.00 0.00 96 1004.3
20260831055535 51 0 0.0 0.0 0.00 0.00 0.00 96 1004.2
20260831055033 51 0 0.0 0.0 0.00 0.00 0.00 96 1004.2
20260831054551 51 0 0.0 0.0 0.00 0.00 0.00 96 1004.3
20260831054031 51 0 0.0 0.9 0.00 0.00 0.00 96 1004.1
20260831053531 51 0 0.0 0.9 0.00 0.00 0.00 96 1004.1
20260831053048 51 252 0.0 0.9 0.00 0.00 0.00 96 1004.1
20260831052531 51 0 0.0 0.0 0.00 0.00 0.00 96 1004.1
20260831052031 51 0 0.0 0.0 0.00 0.00 0.00 96 1004.1
20260831051555 51 0 0.0 0.0 0.00 0.00 0.00 96 1004.2
20260831051034 51 0 0.0 0.0 0.00 0.00 0.00 96 1004.2
20260831050532 51 0 0.0 0.0 0.00 0.00 0.00 96 1004.3
20260831050052 51 0 0.0 0.0 0.00 0.00 0.00 96 1004.2
20260831045534 50 0 0.0 0.0 0.00 0.00 0.00 96 1004.1
20260831045037 50 0 0.0 0.0 0.00 0.00 0.00 96 1004.1
20260831044602 50 0 0.0 0.0 0.00 0.00 0.00 96 1004.2
20260831044034 50 0 0.0 0.0 0.00 0.00 0.00 96 1004.1
20260831043531 50 0 0.0 0.0 0.00 0.00 0.00 96 1004.1
20260831043056 50 0 0.0 0.0 0.00 0.00 0.00 96 1004.0
20260831042531 50 0 0.0 0.0 0.00 0.00 0.00 96 1003.9
20260831042031 50 0 0.0 0.0 0.00 0.00 0.00 96 1003.9
20260831041601 50 0 0.0 0.0 0.00 0.00 0.00 96 1003.9
20260831041038 50 0 0.0 0.0 0.00 0.00 0.00 96 1003.8
20260831040534 50 0 0.0 0.0 0.00 0.00 0.00 96 1003.7
20260831040050 50 0 0.0 0.0 0.00 0.00 0.00 96 1003.7
20260831035537 50 0 0.0 0.0 0.00 0.00 0.00 96 1003.8
20260831035032 50 0 0.0 0.0 0.00 0.00 0.00 96 1003.7
20260831034546 50 0 0.0 0.0 0.00 0.00 0.00 96 1003.7
20260831034031 51 0 0.0 0.0 0.00 0.00 0.00 96 1003.7
20260831033534 51 0 0.0 0.0 0.00 0.00 0.00 96 1003.6
20260831033052 51 0 0.0 0.0 0.00 0.00 0.00 96 1003.7
20260831032531 51 0 0.0 0.0 0.00 0.00 0.00 96 1003.6
20260831032034 51 0 0.0 0.0 0.00 0.00 0.00 96 1003.6
20260831031547 51 0 0.0 0.0 0.00 0.00 0.00 96 1003.6
20260831031031 51 0 0.0 0.9 0.00 0.00 0.00 96 1003.6
20260831030535 51 0 0.0 0.9 0.00 0.00 0.00 96 1003.5
20260831030106 51 243 0.0 0.9 0.00 0.00 0.00 96 1003.5
20260831025531 51 0 0.0 1.7 0.00 0.00 0.00 96 1003.5
20260831025031 51 0 0.0 2.6 0.00 0.00 0.00 96 1003.4
20260831024554 51 345 0.9 2.6 0.00 0.00 0.00 96 1003.4
20260831024033 51 24 0.0 2.6 0.00 0.00 0.00 96 1003.3
20260831023534 52 0 0.0 0.0 0.00 0.00 0.00 96 1003.4
20260831023047 52 0 0.0 0.0 0.00 0.00 0.00 96 1003.4
20260831022534 52 0 0.0 0.0 0.00 0.00 0.00 96 1003.5
20260831022034 52 0 0.0 0.0 0.00 0.00 0.00 96 1003.5
20260831021600 52 0 0.0 0.0 0.00 0.00 0.00 96 1003.6
20260831021036 52 0 0.0 0.0 0.00 0.00 0.00 96 1003.6
20260831020534 52 0 0.0 0.0 0.00 0.00 0.00 96 1003.7
20260831020106 52 0 0.0 0.0 0.00 0.00 0.00 96 1003.5
20260831015533 53 0 0.0 0.0 0.00 0.00 0.00 96 1003.5
20260831015034 53 0 0.0 0.0 0.00 0.00 0.00 96 1003.5
20260831014602 53 0 0.0 0.0 0.00 0.00 0.00 96 1003.6
20260831014034 53 0 0.0 0.0 0.00 0.00 0.00 96 1003.6
20260831013534 52 0 0.0 0.0 0.00 0.00 0.00 96 1003.5
20260831013050 52 0 0.0 0.0 0.00 0.00 0.00 96 1003.6
20260831012534 52 0 0.0 0.0 0.00 0.00 0.00 96 1003.5
20260831012034 52 0 0.0 0.0 0.00 0.00 0.00 96 1003.5
20260831011604 53 0 0.0 0.0 0.00 0.00 0.00 96 1003.5
20260831011034 53 0 0.0 0.0 0.00 0.00 0.00 96 1003.5
20260831010534 53 0 0.0 0.0 0.00 0.00 0.00 96 1003.6
20260831010051 53 0 0.0 0.0 0.00 0.00 0.00 96 1003.6
20260831005534 53 0 0.0 0.0 0.00 0.00 0.00 96 1003.5
20260831005034 53 0 0.0 0.0 0.00 0.00 0.00 96 1003.6
20260831004550 53 0 0.0 0.0 0.00 0.00 0.00 96 1003.4
20260831004036 54 0 0.0 0.0 0.00 0.00 0.00 96 1003.4
20260831003533 53 0 0.0 0.0 0.00 0.00 0.00 96 1003.4
20260831003051 53 0 0.0 0.0 0.00 0.00 0.00 96 1003.6
20260831002537 53 0 0.0 0.0 0.00 0.00 0.00 96 1003.6
20260831002033 53 0 0.0 0.0 0.00 0.00 0.00 96 1003.6
20260831001602 53 0 0.0 0.0 0.00 0.00 0.00 96 1003.5
20260831001033 54 0 0.0 0.0 0.00 0.00 0.00 96 1003.5
20260831000533 54 0 0.0 0.0 0.00 0.00 0.00 96 1003.6
20260831000050 54 0 0.0 0.0 0.00 0.00 0.00 96 1003.5
20260830235536 54 0 0.0 0.0 0.00 0.00 0.00 96 1003.5
20260830235035 54 0 0.0 0.0 0.00 0.00 0.00 96 1003.3
20260830234549 55 0 0.0 0.0 0.00 0.00 0.00 96 1003.4
20260830234032 55 0 0.0 0.0 0.00 0.00 0.00 96 1003.3
20260830233533 55 0 0.0 0.0 0.00 0.00 0.00 96 1003.4
20260830233103 55 0 0.0 0.0 0.00 0.00 0.00 96 1003.3
20260830232536 55 0 0.0 0.0 0.00 0.00 0.00 95 1003.4
20260830232033 56 0 0.0 0.0 0.00 0.00 0.00 96 1003.4
20260830231555 57 0 0.0 0.0 0.00 0.00 0.00 96 1003.3
20260830231033 57 0 0.0 0.0 0.00 0.00 0.00 96 1003.3
20260830230532 57 0 0.0 0.0 0.00 0.00 0.00 96 1003.5
20260830230048 57 0 0.0 0.0 0.00 0.00 0.00 96 1003.3
20260830225532 57 0 0.0 0.0 0.00 0.00 0.00 96 1003.3
20260830225034 57 0 0.0 0.0 0.00 0.00 0.00 96 1003.5
20260830224628 57 0 0.0 0.0 0.00 0.00 0.00 95 1003.4
20260830224032 57 0 0.0 0.0 0.00 0.00 0.00 96 1003.4
20260830223532 58 0 0.0 0.0 0.00 0.00 0.00 96 1003.4
20260830223057 58 0 0.0 0.0 0.00 0.00 0.00 96 1003.3
20260830222531 58 0 0.0 0.0 0.00 0.00 0.00 95 1003.2
20260830222033 57 0 0.0 0.0 0.00 0.00 0.00 95 1003.3
20260830221553 57 0 0.0 0.0 0.00 0.00 0.00 95 1003.3
20260830221033 58 0 0.0 0.0 0.00 0.00 0.00 95 1003.3
20260830220533 57 0 0.0 0.0 0.00 0.00 0.00 95 1003.3
20260830220104 57 0 0.0 0.0 0.00 0.00 0.00 95 1003.3
20260830215531 58 0 0.0 0.0 0.00 0.00 0.00 95 1003.3
20260830215033 58 0 0.0 0.0 0.00 0.00 0.00 95 1003.4
20260830214558 58 0 0.0 0.0 0.00 0.00 0.00 95 1003.3
20260830214031 58 0 0.0 0.0 0.00 0.00 0.00 95 1003.4
20260830213531 58 0 0.0 0.0 0.00 0.00 0.00 95 1003.2
20260830213052 58 0 0.0 0.0 0.00 0.00 0.00 95 1003.4
20260830212534 58 0 0.0 0.0 0.00 0.00 0.00 95 1003.2
20260830212031 58 0 0.0 0.0 0.00 0.00 0.00 94 1003.2
20260830211559 58 0 0.0 0.0 0.00 0.00 0.00 94 1003.2
20260830211033 59 0 0.0 0.0 0.00 0.00 0.00 94 1003.1
20260830210534 59 0 0.0 0.9 0.00 0.00 0.00 94 1003.1
20260830205530 59 175 0.0 0.0 0.00 0.00 0.00 94 1003.1
20260830205030 59 0 0.0 0.0 0.00 0.00 0.00 94 1003.1
20260830204552 59 153 0.0 0.9 0.00 0.00 0.00 94 1003.2
20260830204031 59 153 0.0 0.9 0.00 0.00 0.00 94 1003.1
20260830203531 59 0 0.0 1.7 0.00 0.00 0.00 94 1003.1
20260830203049 59 0 0.0 1.7 0.00 0.00 0.00 94 1003.1